[[{"header":{"parameterUnit":"m.s-1","parameterCategory":1,"la1":30.2991,"la2":30.254,"lo1":-89.0895,"lo2":-89.0444,"dy":0.0017,"dx":0.0017,"nx":28,"ny":28,"refTime":"2024-12-11T09:00:00:Z","depth":0,"parameterNumber":2,"parameterNumberName":"U-component_of_WINDS"},"data":[0,0,0,0,0,0,0,0,0,0,0,0,0,0,0,0,0,0,0,0,0,0,0,0,0,0,0,0,0,0,0,0,0,0,0,0,0,0,0,0,0,0,0,0,0,0,0,0,0,0,0,0,0,0,0,0,0,0,-1.0715,-1.0716,0,-1.0773,-1.0774,-1.0775,-1.0692,-1.0689,-1.0686,-1.0683,-1.0746,-1.0751,-1.0755,0,0,0,0,0,0,0,0,0,0,0,0,0,-1.0534,-1.0538,-1.0715,-1.0716,-1.0717,-1.0773,-1.0774,-1.0775,-1.0692,-1.0689,-1.0685,-1.0682,-1.0745,-1.075,-1.0756,0,0,0,0,0,0,0,0,0,0,0,0,0,-1.0605,-1.0539,-1.0715,-1.0682,-1.068,-1.0773,-1.0774,-1.0775,-1.0693,-1.0689,-1.0684,-1.068,-1.0743,-1.075,-1.0756,-1.0886,0,0,-1.0777,-1.0779,0,0,0,0,0,0,0,0,-1.0601,-1.0612,-1.0686,-1.0684,-1.0682,-1.0721,-1.0734,-1.0812,-1.0694,-1.0688,-1.0683,-1.0678,-1.0742,-1.0748,-1.0769,-1.0889,-1.0892,-1.0777,-1.0781,-1.0784,-1.0786,0,0,0,0,0,0,0,-1.0596,-1.0609,-1.0738,-1.0687,-1.0685,-1.0665,-1.067,-1.0748,-1.0739,-1.0688,-1.0682,-1.069,-1.074,-1.0763,-1.077,-1.0892,-1.0777,-1.0783,-1.0787,-1.079,-1.1122,-1.1126,0,0,0,0,0,0,-1.0595,-1.0605,-1.0736,-1.074,-1.063,-1.0672,-1.0678,-1.0713,-1.0738,-1.0738,-1.0694,-1.0686,-1.0754,-1.0762,-1.0772,-1.0926,-1.0784,-1.079,-1.0794,-1.1117,-1.1123,-1.1128,0,0,0,0,0,0,-1.0591,-1.0607,-1.0734,-1.0671,-1.0686,-1.068,-1.072,-1.0716,-1.0739,-1.0742,-1.0741,-1.0719,-1.075,-1.0762,-1.0858,-1.0927,-1.0793,-1.0799,-1.1111,-1.1119,-1.1125,-1.1236,0,0,0,0,0,0,-1.0587,-1.0607,-1.0656,-1.0673,-1.0689,-1.0819,-1.0724,-1.0721,-1.0751,-1.0741,-1.0765,-1.0765,-1.0748,-1.0848,-1.0865,-1.0934,-1.0804,-1.1105,-1.1115,-1.1123,-1.1226,-1.1246,-1.1263,0,0,0,0,0,-1.058,-1.0685,-1.0658,-1.0675,-1.075,-1.0823,-1.0833,-1.081,-1.0756,-1.0806,-1.0808,-1.0764,-1.0916,-1.0859,-1.0876,-1.0949,-1.1101,-1.1112,-1.1122,-1.1218,-1.1242,-1.1263,0,0,0,0,0,0,-1.0678,-1.0687,-1.0657,-1.077,-1.0797,-1.0809,-1.0871,-1.0836,-1.0879,-1.0868,-1.0838,-1.0845,-1.0947,-1.0957,-1.0893,-1.1076,-1.1,-1.1015,-1.1066,-1.1089,-1.1108,-1.1105,-1.081,0,0,0,0,0,-1.0712,-1.077,-1.0775,-1.0874,-1.0888,-1.0878,-1.0909,-1.0888,-1.0915,-1.0926,-1.0934,-1.0962,-1.1016,-1.1053,-1.1102,-1.1226,-1.1231,-1.1284,-1.1302,-1.1318,-1.1332,-1.1399,-1.1423,-1.1164,-1.1164,-1.1164,0,0,-1.0784,-1.0796,-1.0835,-1.0894,-1.0912,-1.0973,-1.0888,-1.0956,-1.1002,-1.0936,-1.1028,-1.1035,-1.1064,-1.1174,-1.1223,-1.1185,-1.1404,-1.1331,-1.1344,-1.135,-1.1413,-1.1437,-1.1459,-1.1171,-1.117,-1.1169,0,0,-1.0948,-1.0962,-1.1047,-1.1066,-1.1093,-1.1085,-1.1105,-1.1123,-1.1125,-1.1215,-1.1167,-1.1221,-1.1314,-1.1337,-1.1361,-1.1532,-1.1494,-1.1548,-1.1647,-1.1712,-1.1733,-1.1751,-1.1814,-1.1836,-1.1562,-1.1562,-1.1562,0,-1.1035,-1.1125,-1.1095,-1.1167,-1.1195,-1.1136,-1.1222,-1.1242,-1.1286,-1.1307,-1.1263,-1.1378,-1.1394,-1.1509,-1.1551,-1.1571,-1.1595,-1.1547,-1.1732,-1.175,-1.1766,-1.1826,-1.1849,-1.1569,-1.1568,-1.1567,-1.1567,0,-1.1232,-1.1295,-1.136,-1.1402,-1.1436,-1.1515,-1.1498,-1.1537,-1.1512,-1.1509,-1.1602,-1.1618,-1.167,-1.1695,-1.1673,-1.1808,-1.1783,-1.1736,-1.166,-1.1798,-1.1854,-1.1876,-1.1578,-1.1576,-1.1574,-1.1572,0,0,-1.1462,-1.1484,-1.1509,-1.1528,-1.1552,-1.1601,-1.1677,-1.1727,-1.1761,-1.1792,-1.1856,-1.1935,-1.1892,-1.1919,-1.1898,-1.1955,-1.2091,-1.1901,-1.1901,-1.1938,-1.2243,-1.228,-1.2307,-1.2064,-1.2069,-1.2072,-1.2241,0,-1.1627,-1.1758,-1.1733,-1.1861,-1.192,-1.1863,-1.1929,-1.1952,-1.195,-1.2,-1.1998,-1.2056,-1.1992,-1.2008,-1.2062,-1.2063,-1.2152,-1.205,-1.2126,-1.2129,-1.2124,-1.2336,-1.2376,-1.2535,-1.2262,-1.2266,-1.2268,0,-1.1839,-1.1876,-1.2011,-1.2026,-1.2049,-1.2109,-1.2153,-1.22,-1.2225,-1.222,-1.2249,-1.2217,-1.2293,-1.2213,-1.2319,-1.225,-1.2278,-1.2284,-1.2289,-1.2298,-1.221,-1.2354,-1.2585,-1.261,-1.2302,-1.2299,-1.2297,0,-1.1997,-1.208,-1.2172,-1.2189,-1.2208,-1.2252,-1.2262,-1.2282,-1.2313,-1.2351,-1.2371,-1.2418,-1.2444,-1.2481,-1.2462,-1.2405,-1.2572,-1.249,-1.2571,-1.2572,-1.2612,-1.2611,-1.2855,-1.2626,-1.2625,-1.2625,-1.2624,0,-1.2186,-1.2271,-1.2243,-1.23,-1.2393,-1.2362,-1.2456,-1.2459,-1.2477,-1.2534,-1.2487,-1.2541,-1.2512,-1.2564,-1.255,-1.264,-1.2652,-1.2651,-1.2647,-1.2657,-1.2658,-1.2678,-1.2668,-1.2631,-1.263,-1.2628,-1.2627,0,-1.238,-1.2364,-1.246,-1.247,-1.2474,-1.2543,-1.2552,-1.2605,-1.2598,-1.267,-1.2685,-1.2676,-1.2735,-1.2719,-1.2783,-1.2773,-1.2889,-1.2869,-1.2881,-1.2877,-1.296,-1.2954,-1.3229,-1.3265,-1.301,-1.3012,-1.3014,0,-1.2504,-1.2568,-1.2583,-1.2617,-1.2631,-1.2687,-1.2718,-1.2689,-1.2724,-1.2756,-1.2806,-1.286,-1.2902,-1.3,-1.2999,-1.3048,-1.3031,-1.3123,-1.3038,-1.3047,-1.3035,-1.3033,-1.304,-1.3142,-1.3145,-1.3147,-1.3149,0,-1.2726,-1.2714,-1.2761,-1.2805,-1.2843,-1.2877,-1.2906,-1.2937,-1.291,-1.2951,-1.301,-1.3043,-1.3108,-1.3164,-1.3208,-1.3219,-1.3181,-1.3175,-1.3197,-1.3211,-1.3216,-1.3217,-1.2931,-1.317,-1.3168,-1.3167,-1.3166,-1.3165,-1.289,-1.2945,-1.2964,-1.3018,-1.3036,-1.3064,-1.3115,-1.3113,-1.3162,-1.3212,-1.3191,-1.326,-1.3282,-1.3338,-1.3354,-1.3408,-1.3373,-1.3404,-1.3412,-1.3421,-1.3433,-1.3204,-1.3415,-1.3415,-1.3414,-1.3413,-1.3413,0,-1.3112,-1.3121,-1.317,-1.3212,-1.3255,-1.3212,-1.3241,-1.328,-1.3341,-1.3364,-1.3406,-1.3474,-1.3527,-1.3529,-1.3579,-1.3622,-1.3605,-1.3636,-1.3634,-1.3638,-1.346,-1.3438,-1.3648,-1.3648,-1.3648,-1.3648,-1.3648,-1.3648,-1.3233,-1.3323,-1.3314,-1.3413,-1.3421,-1.3487,-1.3508,-1.3534,-1.3552,-1.3631,-1.3674,-1.3674,-1.3689,-1.3739,-1.3786,-1.3785,-1.3807,-1.3845,-1.3838,-1.3673,-1.365,-1.3628,-1.3607,-1.3849,-1.385,-1.4011,-1.4013,-1.4014]},{"header":{"parameterUnit":"m.s-1","parameterCategory":1,"la1":30.2991,"la2":30.254,"lo1":-89.0895,"lo2":-89.0444,"dy":0.0017,"dx":0.0017,"nx":28,"ny":28,"refTime":"2024-12-11T09:00:00:Z","depth":0,"parameterNumber":3,"parameterNumberName":"V-component_of_WINDS"},"data":[0,0,0,0,0,0,0,0,0,0,0,0,0,0,0,0,0,0,0,0,0,0,0,0,0,0,0,0,0,0,0,0,0,0,0,0,0,0,0,0,0,0,0,0,0,0,0,0,0,0,0,0,0,0,0,0,0,0,-4.5735,-4.5737,0,-4.5868,-4.5869,-4.5871,-4.5777,-4.5773,-4.5769,-4.5765,-4.5898,-4.5905,-4.5912,0,0,0,0,0,0,0,0,0,0,0,0,0,-4.5399,-4.5406,-4.5735,-4.5737,-4.5739,-4.5867,-4.5869,-4.5871,-4.5778,-4.5773,-4.5768,-4.5763,-4.5896,-4.5904,-4.5913,0,0,0,0,0,0,0,0,0,0,0,0,0,-4.554,-4.5408,-4.5735,-4.5708,-4.5707,-4.5867,-4.5869,-4.5871,-4.5779,-4.5773,-4.5767,-4.5761,-4.5893,-4.5903,-4.5914,-4.6108,0,0,-4.5948,-4.5953,0,0,0,0,0,0,0,0,-4.5532,-4.5552,-4.571,-4.571,-4.5709,-4.58,-4.5799,-4.5951,-4.5781,-4.5752,-4.5765,-4.5758,-4.587,-4.5883,-4.5921,-4.6114,-4.612,-4.5949,-4.5956,-4.5961,-4.5964,0,0,0,0,0,0,0,-4.5522,-4.5546,-4.5787,-4.5713,-4.5712,-4.5688,-4.5701,-4.5828,-4.5844,-4.5754,-4.5747,-4.5764,-4.5869,-4.5911,-4.5924,-4.6122,-4.5949,-4.5959,-4.5966,-4.597,-4.6479,-4.6486,0,0,0,0,0,0,-4.5515,-4.5539,-4.5783,-4.5791,-4.5603,-4.5699,-4.5714,-4.5777,-4.5843,-4.5847,-4.577,-4.5759,-4.5895,-4.5911,-4.5928,-4.6159,-4.5961,-4.5971,-4.5978,-4.6472,-4.6481,-4.6488,0,0,0,0,0,0,-4.5509,-4.5538,-4.5778,-4.5663,-4.5692,-4.5712,-4.5783,-4.5783,-4.5825,-4.5855,-4.5857,-4.581,-4.589,-4.5912,-4.6064,-4.6162,-4.5976,-4.5986,-4.6464,-4.6475,-4.6484,-4.6623,0,0,0,0,0,0,-4.5499,-4.5536,-4.5611,-4.5666,-4.5699,-4.5913,-4.5789,-4.579,-4.5844,-4.5833,-4.5893,-4.5897,-4.5887,-4.6048,-4.6075,-4.6174,-4.5995,-4.6456,-4.6469,-4.6481,-4.6609,-4.6636,-4.6659,0,0,0,0,0,-4.5488,-4.5644,-4.5615,-4.5645,-4.5792,-4.5919,-4.5938,-4.5924,-4.5853,-4.5927,-4.5946,-4.5895,-4.6147,-4.6064,-4.6094,-4.6198,-4.6449,-4.6465,-4.648,-4.6598,-4.6631,-4.6659,0,0,0,0,0,0,-4.56,-4.5651,-4.5619,-4.5798,-4.5855,-4.5903,-4.5997,-4.596,-4.6037,-4.6023,-4.6002,-4.6016,-4.6176,-4.6201,-4.6108,-4.6388,-4.6286,-4.6309,-4.6366,-4.6398,-4.6422,-4.6413,-4.6004,0,0,0,0,0,-4.5645,-4.5745,-4.5783,-4.5938,-4.5968,-4.5978,-4.6032,-4.6017,-4.6075,-4.6098,-4.6128,-4.6186,-4.6277,-4.6338,-4.6425,-4.6612,-4.6624,-4.6698,-4.6723,-4.6743,-4.6763,-4.6864,-4.6898,-4.6539,-4.6539,-4.6538,0,0,-4.574,-4.578,-4.5844,-4.5961,-4.6003,-4.6106,-4.5999,-4.6112,-4.6188,-4.6115,-4.6261,-4.6285,-4.6347,-4.6518,-4.6594,-4.6544,-4.6865,-4.6763,-4.6779,-4.6788,-4.6884,-4.6917,-4.6948,-4.6549,-4.6547,-4.6546,0,0,-4.5966,-4.6007,-4.614,-4.6184,-4.625,-4.6255,-4.6287,-4.6341,-4.6355,-4.6501,-4.6448,-4.6537,-4.6696,-4.6743,-4.6787,-4.703,-4.6986,-4.7058,-4.719,-4.7288,-4.7317,-4.7342,-4.7429,-4.7461,-4.7078,-4.7078,-4.7078,0,-4.6076,-4.623,-4.6212,-4.633,-4.6383,-4.6322,-4.6456,-4.65,-4.659,-4.6628,-4.657,-4.6768,-4.6806,-4.6986,-4.7046,-4.7083,-4.7119,-4.7052,-4.7314,-4.7339,-4.7362,-4.7445,-4.7478,-4.7087,-4.7086,-4.7085,-4.7084,0,-4.6362,-4.6469,-4.6569,-4.6659,-4.6722,-4.6847,-4.6848,-4.6914,-4.6893,-4.6904,-4.7053,-4.7096,-4.719,-4.7231,-4.7211,-4.7409,-4.7376,-4.7317,-4.7215,-4.7405,-4.7483,-4.7515,-4.7099,-4.7096,-4.7093,-4.7091,0,0,-4.6664,-4.6742,-4.6779,-4.6819,-4.6886,-4.6968,-4.709,-4.7183,-4.724,-4.7304,-4.7405,-4.7541,-4.7487,-4.7537,-4.7522,-4.7608,-4.7799,-4.7538,-4.7539,-4.7586,-4.802,-4.8065,-4.8102,-4.7769,-4.7775,-4.7779,-4.8015,0,-4.6894,-4.7109,-4.7096,-4.7297,-4.7395,-4.7338,-4.7444,-4.7497,-4.751,-4.7595,-4.7609,-4.7706,-4.7626,-4.7657,-4.774,-4.7758,-4.7886,-4.774,-4.7863,-4.7868,-4.7851,-4.8143,-4.8191,-4.8411,-4.8045,-4.805,-4.8054,0,-4.7192,-4.7268,-4.7479,-4.7531,-4.7572,-4.7668,-4.7752,-4.7834,-4.7891,-4.7895,-4.7951,-4.7921,-4.8043,-4.7937,-4.8105,-4.8007,-4.8055,-4.8072,-4.808,-4.8092,-4.7974,-4.8164,-4.8481,-4.8515,-4.8101,-4.8098,-4.8094,0,-4.7393,-4.7546,-4.7692,-4.7728,-4.7793,-4.7862,-4.7891,-4.7943,-4.7999,-4.8072,-4.8108,-4.8193,-4.8241,-4.8307,-4.83,-4.8223,-4.8471,-4.8364,-4.8478,-4.8478,-4.8534,-4.8531,-4.8865,-4.8563,-4.8563,-4.8562,-4.8561,0,-4.7653,-4.7784,-4.7783,-4.7874,-4.8019,-4.8002,-4.8146,-4.8168,-4.8214,-4.8307,-4.8262,-4.8349,-4.8335,-4.8422,-4.8417,-4.8558,-4.8579,-4.8585,-4.8582,-4.859,-4.859,-4.8623,-4.8608,-4.8571,-4.8569,-4.8567,-4.8566,0,-4.7902,-4.7907,-4.8062,-4.8111,-4.8126,-4.8231,-4.8272,-4.8357,-4.8365,-4.8483,-4.851,-4.8524,-4.8625,-4.8624,-4.8739,-4.8735,-4.8907,-4.8886,-4.8889,-4.8885,-4.8999,-4.8989,-4.9368,-4.9417,-4.9082,-4.9085,-4.9088,0,-4.8068,-4.8168,-4.8228,-4.8287,-4.8321,-4.8417,-4.8475,-4.8461,-4.8523,-4.8596,-4.8672,-4.8768,-4.8845,-4.9008,-4.9028,-4.9115,-4.9097,-4.9223,-4.911,-4.9114,-4.91,-4.9095,-4.9105,-4.9246,-4.925,-4.9253,-4.9255,0,-4.8363,-4.8361,-4.8446,-4.8532,-4.8602,-4.8669,-4.8731,-4.8782,-4.8775,-4.8846,-4.8949,-4.9008,-4.9125,-4.9222,-4.9306,-4.9335,-4.9295,-4.9291,-4.9322,-4.9332,-4.9329,-4.9333,-4.8951,-4.9283,-4.928,-4.9278,-4.9276,-4.9275,-4.8577,-4.8664,-4.8719,-4.8815,-4.886,-4.8919,-4.9001,-4.902,-4.9106,-4.9201,-4.9187,-4.9302,-4.9356,-4.9465,-4.9501,-4.959,-4.9546,-4.9591,-4.9602,-4.9614,-4.9627,-4.9314,-4.9605,-4.9604,-4.9604,-4.9603,-4.9602,0,-4.8871,-4.8903,-4.8992,-4.908,-4.9156,-4.9111,-4.9177,-4.9243,-4.9345,-4.9399,-4.9475,-4.9593,-4.9686,-4.9713,-4.9803,-4.9869,-4.9853,-4.9893,-4.9889,-4.9897,-4.9661,-4.9626,-4.9905,-4.9905,-4.9905,-4.9905,-4.9905,-4.9905,-4.9033,-4.9177,-4.9181,-4.9346,-4.9377,-4.949,-4.9532,-4.9585,-4.9628,-4.9763,-4.984,-4.9857,-4.99,-4.9992,-5.0075,-5.0081,-5.0116,-5.0165,-5.0163,-4.9943,-4.9913,-4.9884,-4.9851,-5.0172,-5.0173,-5.0391,-5.0393,-5.0394]}]]